Powrót do katalogu

STARLINK-3665

AktywnyŁącznośćVLEO
NORAD 52098·PAYLOAD·🇺🇸 United States

Wystrzelony Mar 19, 2022 z Cape Canaveral Space Force Station

Loading…

Następne Przeloty (najbliższe 24 godziny)

TLE

ŚwieżeSource: CelesTrak SupGP

Epoka: Sep 14, 2026, 21:03 UTC

1 52098C 22029L   26257.87756944 -.00014163  00000+0 -41860-3 0  2576
2 52098  53.1582 308.3445 0001170  90.2052 223.0296 15.34387025    17

Śledź STARLINK-3665 w czasie rzeczywistym z AllMySat

Download on the App Store